Year,Month,Day,Hour,Minute,Value (Times are PST for temperature in C)
2018,08,06,07,06,16.20
2018,08,06,07,07,16.30
2018,08,06,07,08,16.40
2018,08,06,07,09,16.40
2018,08,06,07,10,16.40
2018,08,06,07,11,16.40
2018,08,06,07,12,16.40
2018,08,06,07,13,16.40
2018,08,06,07,14,16.40
2018,08,06,07,15,16.40
2018,08,06,07,16,16.40
2018,08,06,07,17,16.40
2018,08,06,07,18,16.40
2018,08,06,07,19,16.40
2018,08,06,07,35,18.60
2018,08,06,07,36,18.50
2018,08,06,07,37,18.50
2018,08,06,07,38,18.50
2018,08,06,07,39,18.50
2018,08,06,07,40,18.40
2018,08,06,07,41,18.40
2018,08,06,07,42,18.40
2018,08,06,07,43,18.40
2018,08,06,07,44,18.30
2018,08,06,07,45,18.30
2018,08,06,07,46,18.30
2018,08,06,07,47,18.30
2018,08,06,07,48,18.40
2018,08,06,07,49,18.40
2018,08,06,07,50,18.40
2018,08,06,07,51,18.50
2018,08,06,07,52,18.50
2018,08,06,07,53,18.60
2018,08,06,07,54,18.60
2018,08,06,07,55,18.60
2018,08,06,07,56,18.60
2018,08,06,07,57,18.70
2018,08,06,07,58,18.70
2018,08,06,07,59,18.70
2018,08,06,08,00,18.80
2018,08,06,08,01,18.80
2018,08,06,08,02,18.80
2018,08,06,08,03,18.80
2018,08,06,08,04,18.90
2018,08,06,08,05,18.90
2018,08,06,08,06,18.90
2018,08,06,08,07,18.90
2018,08,06,08,08,18.90
2018,08,06,08,09,19.00
2018,08,06,08,10,19.00
2018,08,06,08,11,19.10
2018,08,06,08,12,19.10
2018,08,06,08,13,19.20
2018,08,06,08,14,19.30
2018,08,06,08,15,19.40
2018,08,06,08,16,19.50
2018,08,06,08,17,19.60
2018,08,06,08,18,19.60
2018,08,06,08,19,19.70
2018,08,06,08,20,19.70
2018,08,06,08,21,19.80
2018,08,06,08,22,19.80
2018,08,06,08,23,19.80
2018,08,06,08,24,19.90
2018,08,06,08,25,19.90
2018,08,06,08,26,19.90
2018,08,06,08,27,19.90
2018,08,06,08,28,19.90
2018,08,06,08,29,19.90
2018,08,06,08,30,20.00
2018,08,06,08,31,20.00
2018,08,06,08,32,20.10
2018,08,06,08,33,20.10
2018,08,06,08,34,20.10
2018,08,06,08,35,20.10
2018,08,06,08,36,20.20
2018,08,06,08,37,20.20
2018,08,06,08,38,20.20
2018,08,06,08,39,20.20
2018,08,06,08,40,20.20
2018,08,06,08,41,20.30
2018,08,06,08,42,20.40
2018,08,06,08,43,20.50
2018,08,06,08,44,20.60
2018,08,06,08,45,20.70
2018,08,06,08,46,20.80
2018,08,06,08,47,20.90
2018,08,06,08,48,20.90
2018,08,06,08,49,21.00
2018,08,06,08,50,21.10
2018,08,06,08,51,21.10
2018,08,06,08,52,21.10
2018,08,06,08,53,21.00
2018,08,06,08,54,21.00
2018,08,06,08,55,21.00
2018,08,06,08,56,21.00
2018,08,06,08,57,21.00
2018,08,06,08,58,21.00
2018,08,06,08,59,21.00
2018,08,06,09,00,21.00
2018,08,06,09,01,20.90
2018,08,06,09,02,20.90
2018,08,06,09,03,20.90
2018,08,06,09,04,20.90
2018,08,06,09,05,20.90
2018,08,06,09,06,20.90
2018,08,06,09,07,20.90
2018,08,06,09,08,20.90
2018,08,06,09,09,20.90
2018,08,06,09,10,20.90
2018,08,06,09,11,21.00
2018,08,06,09,12,21.10
2018,08,06,09,13,21.00
2018,08,06,09,14,21.00
2018,08,06,09,15,21.00
2018,08,06,09,16,21.00
2018,08,06,09,17,20.90
2018,08,06,09,18,20.90
2018,08,06,09,19,20.90
2018,08,06,09,20,20.90
2018,08,06,09,21,20.90
2018,08,06,09,22,21.00
2018,08,06,09,23,21.00
2018,08,06,09,24,21.10
2018,08,06,09,25,21.10
2018,08,06,09,26,21.10
2018,08,06,09,27,21.10
2018,08,06,09,28,21.00
2018,08,06,09,29,20.90
2018,08,06,09,30,20.90
2018,08,06,09,31,20.90
2018,08,06,09,32,20.80
2018,08,06,09,33,20.80
2018,08,06,09,34,20.80
2018,08,06,09,35,20.90
2018,08,06,09,36,20.90
2018,08,06,09,37,20.90
2018,08,06,09,38,21.00
2018,08,06,09,39,21.00
2018,08,06,09,40,21.10
2018,08,06,09,41,21.00
2018,08,06,09,42,21.00
2018,08,06,09,43,21.00
2018,08,06,09,44,21.00
2018,08,06,09,45,21.00
2018,08,06,09,46,21.00
2018,08,06,09,47,21.00
2018,08,06,09,48,21.00
2018,08,06,09,49,21.00
2018,08,06,09,50,21.00
2018,08,06,09,51,21.10
2018,08,06,09,52,21.10
2018,08,06,09,53,21.10
2018,08,06,09,54,21.20
2018,08,06,09,55,21.30
2018,08,06,09,56,21.30
2018,08,06,09,57,21.30
2018,08,06,09,58,21.40
2018,08,06,09,59,21.40
2018,08,06,10,00,21.40
2018,08,06,10,01,21.60
2018,08,06,10,02,21.70
2018,08,06,10,03,21.80
2018,08,06,10,04,21.80
2018,08,06,10,05,21.80
2018,08,06,10,06,21.80
2018,08,06,10,07,21.80
2018,08,06,10,08,21.80
2018,08,06,10,09,21.80
2018,08,06,10,10,21.80
2018,08,06,10,11,21.80
2018,08,06,10,12,21.80
2018,08,06,10,13,21.90
2018,08,06,10,14,21.80
2018,08,06,10,15,21.80
2018,08,06,10,16,21.90
2018,08,06,10,17,21.90
2018,08,06,10,18,21.90
2018,08,06,10,19,21.90
2018,08,06,10,20,22.00
2018,08,06,10,21,22.00
2018,08,06,10,22,21.90
2018,08,06,10,23,21.80
2018,08,06,10,24,21.80
2018,08,06,10,25,21.80
2018,08,06,10,26,21.90
2018,08,06,10,27,22.00
2018,08,06,10,28,22.10
2018,08,06,10,29,22.20
2018,08,06,10,30,22.20
2018,08,06,10,31,22.20
2018,08,06,10,32,22.10
2018,08,06,10,33,22.10
2018,08,06,10,34,22.10
2018,08,06,10,35,22.00
2018,08,06,10,36,22.00
2018,08,06,10,37,22.00
2018,08,06,10,38,22.00
2018,08,06,10,39,22.00
2018,08,06,10,40,22.00
2018,08,06,10,41,22.10
2018,08,06,10,42,22.10
2018,08,06,10,43,22.10
2018,08,06,10,44,22.20
2018,08,06,10,45,22.20
2018,08,06,10,46,22.20
2018,08,06,10,47,22.30
2018,08,06,10,48,22.20
2018,08,06,10,49,22.30
2018,08,06,10,50,22.30
2018,08,06,10,51,22.30
2018,08,06,10,52,22.30
2018,08,06,10,53,22.20
2018,08,06,10,54,22.20
2018,08,06,10,55,22.20
2018,08,06,10,56,22.30
2018,08,06,10,57,22.30
2018,08,06,10,58,22.40
2018,08,06,10,59,22.40
2018,08,06,11,00,22.40
2018,08,06,11,01,22.40
2018,08,06,11,02,22.30
2018,08,06,11,03,22.30
2018,08,06,11,04,22.20
2018,08,06,11,05,22.20
2018,08,06,11,06,22.20
2018,08,06,11,07,22.30
2018,08,06,11,08,22.40
2018,08,06,11,09,22.50
2018,08,06,11,10,22.60
2018,08,06,11,11,22.80
2018,08,06,11,12,23.00
2018,08,06,11,13,23.10
2018,08,06,11,14,23.10
2018,08,06,11,15,23.00
2018,08,06,11,16,23.00
2018,08,06,11,17,23.10
2018,08,06,11,18,23.20
2018,08,06,11,19,23.40
2018,08,06,11,20,23.50
2018,08,06,11,21,23.60
2018,08,06,11,22,23.70
2018,08,06,11,23,23.80
2018,08,06,11,24,23.80
2018,08,06,11,25,23.80
2018,08,06,11,26,23.80
2018,08,06,11,27,23.80
2018,08,06,11,28,23.80
2018,08,06,11,29,23.80
2018,08,06,11,30,23.90
2018,08,06,11,31,23.90
2018,08,06,11,32,23.90
2018,08,06,11,33,23.90
2018,08,06,11,34,23.90
2018,08,06,11,35,23.90
2018,08,06,11,36,23.90
2018,08,06,11,37,23.90
2018,08,06,11,38,23.90
2018,08,06,11,39,23.80
2018,08,06,11,40,23.90
2018,08,06,11,41,23.90
2018,08,06,11,42,24.00
2018,08,06,11,43,24.20
2018,08,06,11,44,24.30
2018,08,06,11,45,24.40
2018,08,06,11,46,24.50
2018,08,06,11,47,24.60
2018,08,06,11,48,24.60
2018,08,06,11,49,24.60
2018,08,06,11,50,24.70
2018,08,06,11,51,24.70
2018,08,06,11,52,24.80
2018,08,06,11,53,24.70
2018,08,06,11,54,24.60
2018,08,06,11,55,24.60
2018,08,06,11,56,24.60
2018,08,06,11,57,24.70
2018,08,06,11,58,24.80
2018,08,06,11,59,24.80
2018,08,06,12,00,24.80
2018,08,06,12,01,24.80
2018,08,06,12,02,24.80
2018,08,06,12,03,24.70
2018,08,06,12,04,24.70
2018,08,06,12,05,24.60
2018,08,06,12,06,24.60
2018,08,06,12,07,24.60
2018,08,06,12,08,24.60
2018,08,06,12,09,24.70
2018,08,06,12,10,24.80
2018,08,06,12,11,24.90
2018,08,06,12,12,25.10
2018,08,06,12,13,25.10
2018,08,06,12,14,25.10
2018,08,06,12,15,25.20
2018,08,06,12,16,25.10
2018,08,06,12,17,25.10
2018,08,06,12,18,25.10
2018,08,06,12,19,25.10
2018,08,06,12,20,25.10
2018,08,06,12,21,25.10
2018,08,06,12,22,25.10
2018,08,06,12,23,25.10
2018,08,06,12,24,25.10
2018,08,06,12,25,25.00
2018,08,06,12,26,25.00
2018,08,06,12,27,25.00
2018,08,06,12,28,25.10
2018,08,06,12,29,25.20
2018,08,06,12,30,25.10
2018,08,06,12,31,25.10
2018,08,06,12,32,25.10
2018,08,06,12,33,25.10
2018,08,06,12,34,25.10
2018,08,06,12,35,25.20
2018,08,06,12,36,25.20
2018,08,06,12,37,25.10
2018,08,06,12,38,25.10
2018,08,06,12,39,25.10
2018,08,06,12,40,25.20
2018,08,06,12,41,25.30
2018,08,06,12,42,25.30
2018,08,06,12,43,25.30
2018,08,06,12,44,25.30
2018,08,06,12,45,25.50
2018,08,06,12,46,25.60
2018,08,06,12,47,25.60
2018,08,06,12,48,25.60
2018,08,06,12,49,25.60
2018,08,06,12,50,25.70
2018,08,06,12,51,25.80
2018,08,06,12,52,26.00
2018,08,06,12,53,26.10
2018,08,06,12,54,26.00
2018,08,06,12,55,25.90
2018,08,06,12,56,25.80
2018,08,06,12,57,25.70
2018,08,06,12,58,25.60
2018,08,06,12,59,25.60
2018,08,06,13,00,25.60
2018,08,06,13,01,25.80
2018,08,06,13,02,25.90
2018,08,06,13,03,26.00
2018,08,06,13,04,26.10
2018,08,06,13,05,26.00
2018,08,06,13,06,25.90
2018,08,06,13,07,25.80
2018,08,06,13,08,25.90
2018,08,06,13,09,26.00
2018,08,06,13,10,26.20
2018,08,06,13,11,26.30
2018,08,06,13,12,26.40
2018,08,06,13,13,26.30
2018,08,06,13,14,26.30
2018,08,06,13,15,26.30
2018,08,06,13,16,26.40
2018,08,06,13,17,26.50
2018,08,06,13,18,26.60
2018,08,06,13,19,26.70
2018,08,06,13,20,26.80
2018,08,06,13,21,27.00
2018,08,06,13,22,27.10
2018,08,06,13,23,27.20
2018,08,06,13,24,27.20
2018,08,06,13,25,27.30
2018,08,06,13,26,27.20
2018,08,06,13,27,27.10
2018,08,06,13,28,26.80
2018,08,06,13,29,26.70
2018,08,06,13,30,26.60
2018,08,06,13,31,26.60
2018,08,06,13,32,26.70
2018,08,06,13,33,26.70
2018,08,06,13,34,26.70
2018,08,06,13,35,26.70
2018,08,06,13,36,26.60
2018,08,06,13,37,26.60
2018,08,06,13,38,26.50
2018,08,06,13,39,26.50
2018,08,06,13,40,26.40
2018,08,06,13,41,26.40
2018,08,06,13,42,26.50
2018,08,06,13,43,26.60
2018,08,06,13,44,26.70
2018,08,06,13,45,26.70
2018,08,06,13,46,26.70
2018,08,06,13,47,26.70
2018,08,06,13,48,26.80
2018,08,06,13,49,26.90
2018,08,06,13,50,26.90
2018,08,06,13,51,26.90
2018,08,06,13,52,26.80
2018,08,06,13,53,26.80
2018,08,06,13,54,26.80
2018,08,06,13,55,26.80
2018,08,06,13,56,26.90
2018,08,06,13,57,26.90
2018,08,06,13,58,26.90
2018,08,06,13,59,26.80
2018,08,06,14,00,26.70
2018,08,06,14,01,26.60
2018,08,06,14,02,26.60
2018,08,06,14,03,26.70
2018,08,06,14,04,26.80
2018,08,06,14,05,26.80
2018,08,06,14,06,26.70
2018,08,06,14,07,26.60
2018,08,06,14,08,26.50
2018,08,06,14,09,26.40
2018,08,06,14,10,26.40
2018,08,06,14,11,26.40
2018,08,06,14,12,26.40
2018,08,06,14,13,26.40
2018,08,06,14,14,26.50
2018,08,06,14,15,26.60
2018,08,06,14,16,26.70
2018,08,06,14,17,26.70
2018,08,06,14,18,26.80
2018,08,06,14,19,26.80
2018,08,06,14,20,26.80
2018,08,06,14,21,26.90
2018,08,06,14,22,27.00
2018,08,06,14,23,27.10
2018,08,06,14,24,27.20
2018,08,06,14,25,27.20
2018,08,06,14,26,27.30
2018,08,06,14,27,27.20
2018,08,06,14,28,27.20
2018,08,06,14,29,27.10
2018,08,06,14,30,27.10
2018,08,06,14,31,27.10
2018,08,06,14,32,27.10
2018,08,06,14,33,27.00
2018,08,06,14,34,26.90
2018,08,06,14,35,26.90
2018,08,06,14,36,26.80
2018,08,06,14,37,26.80
2018,08,06,14,38,26.80
2018,08,06,14,39,26.90
2018,08,06,14,40,26.90
2018,08,06,14,41,27.10
2018,08,06,14,42,27.20
2018,08,06,14,43,27.20
2018,08,06,14,44,27.20
2018,08,06,14,45,27.00
2018,08,06,14,46,26.80
2018,08,06,14,47,26.70
2018,08,06,14,48,26.70
2018,08,06,14,49,26.70
2018,08,06,14,50,26.70
2018,08,06,14,51,26.70
2018,08,06,14,52,26.80
2018,08,06,14,53,26.80
2018,08,06,14,54,26.90
2018,08,06,14,55,27.00
2018,08,06,14,56,27.10
2018,08,06,14,57,27.20
2018,08,06,14,58,27.10
2018,08,06,14,59,27.10
2018,08,06,15,00,27.10
2018,08,06,15,01,27.10
2018,08,06,15,02,27.10
2018,08,06,15,03,27.10
2018,08,06,15,04,27.20
2018,08,06,15,05,27.30
2018,08,06,15,06,27.40
2018,08,06,15,07,27.40
2018,08,06,15,08,27.40
2018,08,06,15,09,27.40
2018,08,06,15,10,27.40
2018,08,06,15,11,27.40
2018,08,06,15,12,27.40
2018,08,06,15,13,27.30
2018,08,06,15,14,27.20
2018,08,06,15,15,27.20
2018,08,06,15,16,27.10
2018,08,06,15,17,27.10
2018,08,06,15,18,27.20
2018,08,06,15,19,27.40
2018,08,06,15,20,27.50
2018,08,06,15,21,27.70
2018,08,06,15,22,27.80
2018,08,06,15,23,27.80
2018,08,06,15,24,27.90
2018,08,06,15,25,27.80
2018,08,06,15,26,27.70
2018,08,06,15,27,27.70
2018,08,06,15,28,27.70
2018,08,06,15,29,27.70
2018,08,06,15,30,27.60
2018,08,06,15,31,27.60
2018,08,06,15,32,27.70
2018,08,06,15,33,27.80
2018,08,06,15,34,27.80
2018,08,06,15,35,27.90
2018,08,06,15,36,27.90
2018,08,06,15,37,27.90
2018,08,06,15,38,28.00
2018,08,06,15,39,28.00
2018,08,06,15,40,28.00
2018,08,06,15,41,28.00
2018,08,06,15,42,27.90
2018,08,06,15,43,27.90
2018,08,06,15,44,28.00
2018,08,06,15,45,28.10
2018,08,06,15,46,28.20
2018,08,06,15,47,28.40
2018,08,06,15,48,28.60
2018,08,06,15,49,28.70
2018,08,06,15,50,28.70
2018,08,06,15,51,28.50
2018,08,06,15,52,28.30
2018,08,06,15,53,28.20
2018,08,06,15,54,28.10
2018,08,06,15,55,28.00
2018,08,06,15,56,27.90
2018,08,06,15,57,27.90
2018,08,06,15,58,27.90
2018,08,06,15,59,28.00
2018,08,06,16,00,28.10
2018,08,06,16,01,28.20
2018,08,06,16,02,28.30
2018,08,06,16,03,28.30
2018,08,06,16,04,28.30
2018,08,06,16,05,28.30
2018,08,06,16,06,28.30
2018,08,06,16,07,28.40
2018,08,06,16,08,28.40
2018,08,06,16,09,28.40
2018,08,06,16,10,28.40
2018,08,06,16,11,28.40
2018,08,06,16,12,28.30
2018,08,06,16,13,28.40
2018,08,06,16,14,28.40
2018,08,06,16,15,28.50
2018,08,06,16,16,28.40
2018,08,06,16,17,28.30
2018,08,06,16,18,28.20
2018,08,06,16,19,28.20
2018,08,06,16,20,28.10
2018,08,06,16,21,28.10
2018,08,06,16,22,28.10
2018,08,06,16,23,28.20
2018,08,06,16,24,28.20
2018,08,06,16,25,28.30
2018,08,06,16,26,28.40
2018,08,06,16,27,28.50
2018,08,06,16,28,28.60
2018,08,06,16,29,28.70
2018,08,06,16,30,28.80
2018,08,06,16,31,28.70
2018,08,06,16,32,28.50
2018,08,06,16,33,28.40
2018,08,06,16,34,28.30
2018,08,06,16,35,28.40
2018,08,06,16,36,28.50
2018,08,06,16,37,28.50
2018,08,06,16,38,28.50
2018,08,06,16,39,28.40
2018,08,06,16,40,28.40
2018,08,06,16,41,28.40
2018,08,06,16,42,28.50
2018,08,06,16,43,28.60
2018,08,06,16,44,28.70
2018,08,06,16,45,28.60
2018,08,06,16,46,28.60
2018,08,06,16,47,28.70
2018,08,06,16,48,28.70
2018,08,06,16,49,28.70
2018,08,06,16,50,28.70
2018,08,06,16,51,28.70
2018,08,06,16,52,28.60
2018,08,06,16,53,28.60
2018,08,06,16,54,28.60
2018,08,06,16,55,28.60
2018,08,06,16,56,28.60
2018,08,06,16,57,28.70
2018,08,06,16,58,28.80
2018,08,06,16,59,29.00
2018,08,06,17,00,29.10
2018,08,06,17,01,29.10
2018,08,06,17,02,29.10
2018,08,06,17,03,29.10
2018,08,06,17,04,29.10
2018,08,06,17,05,29.20
2018,08,06,17,06,29.20
2018,08,06,17,07,29.20
2018,08,06,17,08,29.30
2018,08,06,17,09,29.30
2018,08,06,17,10,29.40
2018,08,06,17,11,29.40
2018,08,06,17,12,29.40
2018,08,06,17,13,29.40
2018,08,06,17,14,29.30
2018,08,06,17,15,29.30
2018,08,06,17,16,29.30
2018,08,06,17,17,29.30
2018,08,06,17,18,29.30
2018,08,06,17,19,29.30
2018,08,06,17,20,29.20
2018,08,06,17,21,29.10
2018,08,06,17,22,29.00
2018,08,06,17,23,28.90
2018,08,06,17,24,28.80
2018,08,06,17,25,28.70
2018,08,06,17,26,28.50
2018,08,06,17,27,28.40
2018,08,06,17,28,28.40
2018,08,06,17,29,28.30
2018,08,06,17,30,28.20
2018,08,06,17,31,28.10
2018,08,06,17,32,28.00
2018,08,06,17,33,28.00
2018,08,06,17,34,27.90
2018,08,06,17,35,27.90
2018,08,06,17,36,27.80
2018,08,06,17,37,27.80
2018,08,06,17,38,27.80
2018,08,06,17,39,27.80
2018,08,06,17,40,27.80
2018,08,06,17,41,27.70
2018,08,06,17,42,27.70
2018,08,06,17,43,27.70
2018,08,06,17,44,27.70
2018,08,06,17,45,27.60
2018,08,06,17,46,27.60
2018,08,06,17,47,27.60
2018,08,06,17,48,27.60
2018,08,06,17,49,27.70
2018,08,06,17,50,27.70
2018,08,06,17,51,27.80
2018,08,06,17,52,27.80
2018,08,06,17,53,27.80
2018,08,06,17,54,27.80
2018,08,06,17,55,27.90
2018,08,06,17,56,28.00
2018,08,06,17,57,28.10
2018,08,06,17,58,28.10
2018,08,06,17,59,28.20
2018,08,06,18,00,28.20
2018,08,06,18,01,28.30
2018,08,06,18,02,28.40
2018,08,06,18,03,28.60
2018,08,06,18,04,28.70
2018,08,06,18,05,28.70
2018,08,06,18,06,28.80
2018,08,06,18,07,28.80
2018,08,06,18,08,28.80
2018,08,06,18,09,28.80
2018,08,06,18,10,28.80
2018,08,06,18,11,28.70
2018,08,06,18,12,28.60
2018,08,06,18,13,28.60
2018,08,06,18,14,28.50
2018,08,06,18,15,28.40
2018,08,06,18,16,28.30
2018,08,06,18,17,28.20
2018,08,06,18,18,28.10
2018,08,06,18,19,28.00
2018,08,06,18,20,27.90
2018,08,06,18,21,27.90
2018,08,06,18,22,27.80
2018,08,06,18,23,27.60
2018,08,06,18,24,27.50
2018,08,06,18,25,27.50
2018,08,06,18,26,27.50
2018,08,06,18,27,27.50
2018,08,06,18,28,27.50
2018,08,06,18,29,27.50
2018,08,06,18,30,27.50
2018,08,06,18,31,27.40
2018,08,06,18,32,27.40
2018,08,06,18,33,27.40
2018,08,06,18,34,27.40
2018,08,06,18,35,27.40
2018,08,06,18,36,27.30
2018,08,06,18,37,27.30
2018,08,06,18,38,27.30
2018,08,06,18,39,27.30
2018,08,06,18,40,27.30
2018,08,06,18,41,27.30
2018,08,06,18,42,27.30
2018,08,06,18,43,27.30
2018,08,06,18,44,27.40
2018,08,06,18,45,27.40
2018,08,06,18,46,27.50
2018,08,06,18,47,27.60
2018,08,06,18,48,27.70
2018,08,06,18,49,27.80
2018,08,06,18,50,27.90
2018,08,06,18,51,28.00
2018,08,06,18,52,28.10
2018,08,06,18,53,28.20
2018,08,06,18,54,28.30
2018,08,06,18,55,28.40
2018,08,06,18,56,28.50
2018,08,06,18,57,28.60
2018,08,06,18,58,28.60
2018,08,06,18,59,28.70
2018,08,06,19,00,28.70
2018,08,06,19,01,28.70
2018,08,06,19,02,28.80
2018,08,06,19,03,28.80
2018,08,06,19,04,28.90
2018,08,06,19,05,29.00
2018,08,06,19,06,29.00
2018,08,06,19,07,29.00
2018,08,06,19,08,29.10
2018,08,06,19,09,29.10
2018,08,06,19,10,29.10
2018,08,06,19,11,29.10
2018,08,06,19,12,29.00
2018,08,06,19,13,29.00
2018,08,06,19,14,28.90
2018,08,06,19,15,28.90
2018,08,06,19,16,29.00
2018,08,06,19,17,29.10
2018,08,06,19,18,29.10
2018,08,06,19,19,29.20
2018,08,06,19,20,29.30
2018,08,06,19,21,29.40
2018,08,06,19,22,29.50
2018,08,06,19,23,29.50
2018,08,06,19,24,29.60
2018,08,06,19,25,29.50
2018,08,06,19,26,29.30
2018,08,06,19,27,29.00
2018,08,06,19,28,28.80
2018,08,06,19,29,28.80
2018,08,06,19,30,28.70
2018,08,06,19,31,28.70
2018,08,06,19,32,28.70
2018,08,06,19,33,28.70
2018,08,06,19,34,28.60
2018,08,06,19,35,28.50
2018,08,06,19,36,28.40
2018,08,06,19,37,28.30
2018,08,06,19,38,28.30
2018,08,06,19,39,28.30
2018,08,06,19,40,28.30
2018,08,06,19,41,28.30
2018,08,06,19,42,28.20
2018,08,06,19,43,28.10
2018,08,06,19,44,28.00
2018,08,06,19,45,27.80
2018,08,06,19,46,27.70
2018,08,06,19,47,27.70
2018,08,06,19,48,27.60
2018,08,06,19,49,27.60
2018,08,06,19,50,27.60
2018,08,06,19,51,27.60
2018,08,06,19,52,27.70
2018,08,06,19,53,27.70
2018,08,06,19,54,27.80
2018,08,06,19,55,27.90
2018,08,06,19,56,27.90
2018,08,06,19,57,27.90
2018,08,06,19,58,27.90
2018,08,06,19,59,27.80
2018,08,06,20,00,27.70
2018,08,06,20,01,27.60
2018,08,06,20,02,27.50
2018,08,06,20,03,27.40
2018,08,06,20,04,27.30
2018,08,06,20,05,27.30
2018,08,06,20,06,27.20
2018,08,06,20,07,27.10
2018,08,06,20,08,27.00
2018,08,06,20,09,27.00
2018,08,06,20,10,26.90
2018,08,06,20,11,26.90
2018,08,06,20,12,26.80
2018,08,06,20,13,26.80
2018,08,06,20,14,26.80
2018,08,06,20,15,26.70
2018,08,06,20,16,26.70
2018,08,06,20,17,26.60
2018,08,06,20,18,26.50
2018,08,06,20,19,26.40
2018,08,06,20,20,26.30
2018,08,06,20,21,26.20
2018,08,06,20,22,26.10
2018,08,06,20,23,26.00
2018,08,06,20,24,25.90
2018,08,06,20,25,25.90
2018,08,06,20,26,25.80
2018,08,06,20,27,25.80
2018,08,06,20,28,25.70
2018,08,06,20,29,25.70
2018,08,06,20,30,25.60
2018,08,06,20,31,25.60
2018,08,06,20,32,25.50
2018,08,06,20,33,25.50
2018,08,06,20,34,25.40
2018,08,06,20,35,25.30
2018,08,06,20,36,25.30
2018,08,06,20,37,25.20
2018,08,06,20,38,25.10
2018,08,06,20,39,25.00
2018,08,06,20,40,24.90
2018,08,06,20,41,24.80
2018,08,06,20,42,24.80
2018,08,06,20,43,24.70
2018,08,06,20,44,24.70
2018,08,06,20,45,24.70
2018,08,06,20,46,24.60
2018,08,06,20,47,24.60
2018,08,06,20,48,24.60
2018,08,06,20,49,24.50
2018,08,06,20,50,24.50
2018,08,06,20,51,24.40
2018,08,06,20,52,24.40
2018,08,06,20,53,24.40
2018,08,06,20,54,24.30
2018,08,06,20,55,24.30
2018,08,06,20,56,24.20
2018,08,06,20,57,24.10
2018,08,06,20,58,24.00
2018,08,06,20,59,23.90
2018,08,06,21,00,23.80
2018,08,06,21,01,23.70
2018,08,06,21,02,23.70
2018,08,06,21,03,23.60
2018,08,06,21,04,23.50
2018,08,06,21,05,23.50
2018,08,06,21,06,23.50
2018,08,06,21,07,23.40
2018,08,06,21,08,23.40
2018,08,06,21,09,23.30
2018,08,06,21,10,23.30
2018,08,06,21,11,23.30
2018,08,06,21,12,23.20
2018,08,06,21,13,23.20
2018,08,06,21,14,23.10
2018,08,06,21,15,23.10
2018,08,06,21,16,23.00
2018,08,06,21,17,22.90
2018,08,06,21,18,22.90
2018,08,06,21,19,22.80
2018,08,06,21,20,22.80
2018,08,06,21,21,22.80
2018,08,06,21,22,22.80
2018,08,06,21,23,22.70
2018,08,06,21,24,22.70
2018,08,06,21,25,22.70
2018,08,06,21,26,22.60
2018,08,06,21,27,22.60
2018,08,06,21,28,22.60
2018,08,06,21,29,22.50
2018,08,06,21,30,22.50
2018,08,06,21,31,22.40
2018,08,06,21,32,22.40
2018,08,06,21,33,22.40
2018,08,06,21,34,22.30
2018,08,06,21,35,22.30
2018,08,06,21,36,22.30
2018,08,06,21,37,22.20
2018,08,06,21,38,22.20
2018,08,06,21,39,22.20
2018,08,06,21,40,22.10
2018,08,06,21,41,22.10
2018,08,06,21,42,22.10
2018,08,06,21,43,22.00
2018,08,06,21,44,22.00
2018,08,06,21,45,22.00
2018,08,06,21,46,22.00
2018,08,06,21,47,21.90
2018,08,06,21,48,21.90
2018,08,06,21,49,21.90
2018,08,06,21,50,21.80
2018,08,06,21,51,21.80
2018,08,06,21,52,21.80
2018,08,06,21,53,21.80
2018,08,06,21,54,21.70
2018,08,06,21,55,21.70
2018,08,06,21,56,21.70
2018,08,06,21,57,21.60
2018,08,06,21,58,21.60
2018,08,06,21,59,21.60
2018,08,06,22,00,21.60
2018,08,06,22,01,21.50
2018,08,06,22,02,21.50
2018,08,06,22,03,21.50
2018,08,06,22,04,21.40
2018,08,06,22,05,21.40
2018,08,06,22,06,21.40
2018,08,06,22,07,21.40
2018,08,06,22,08,21.40
2018,08,06,22,09,21.40
2018,08,06,22,10,21.30
2018,08,06,22,11,21.30
2018,08,06,22,12,21.30
2018,08,06,22,13,21.30
2018,08,06,22,14,21.30
2018,08,06,22,15,21.30
2018,08,06,22,16,21.30
2018,08,06,22,17,21.30
2018,08,06,22,18,21.30
2018,08,06,22,19,21.30
2018,08,06,22,20,21.30
2018,08,06,22,21,21.30
2018,08,06,22,22,21.30
2018,08,06,22,23,21.30
2018,08,06,22,24,21.20
2018,08,06,22,25,21.20
2018,08,06,22,26,21.20
2018,08,06,22,27,21.20
2018,08,06,22,28,21.20
2018,08,06,22,29,21.20
2018,08,06,22,30,21.10
2018,08,06,22,31,21.10
2018,08,06,22,32,21.10
2018,08,06,22,33,21.10
2018,08,06,22,34,21.10
2018,08,06,22,35,21.10
2018,08,06,22,36,21.10
2018,08,06,22,37,21.10
2018,08,06,22,38,21.10
2018,08,06,22,39,21.00
2018,08,06,22,40,21.00
2018,08,06,22,41,21.00
2018,08,06,22,42,20.90
2018,08,06,22,43,20.90
2018,08,06,22,44,20.90
2018,08,06,22,45,20.90
2018,08,06,22,46,20.80
2018,08,06,22,47,20.80
2018,08,06,22,48,20.80
2018,08,06,22,49,20.80
2018,08,06,22,50,20.80
2018,08,06,22,51,20.80
2018,08,06,22,52,20.70
2018,08,06,22,53,20.70
2018,08,06,22,54,20.70
2018,08,06,22,55,20.70
2018,08,06,22,56,20.80
2018,08,06,22,57,20.80
2018,08,06,22,58,20.80
2018,08,06,22,59,20.80
2018,08,06,23,00,20.70
2018,08,06,23,01,20.70
2018,08,06,23,02,20.70
2018,08,06,23,03,20.70
2018,08,06,23,04,20.70
2018,08,06,23,05,20.70
2018,08,06,23,06,20.70
2018,08,06,23,07,20.70
2018,08,06,23,08,20.70
2018,08,06,23,09,20.60
2018,08,06,23,10,20.60
2018,08,06,23,11,20.60
2018,08,06,23,12,20.60
2018,08,06,23,13,20.60
2018,08,06,23,14,20.60
2018,08,06,23,15,20.60
2018,08,06,23,16,20.50
2018,08,06,23,17,20.50
2018,08,06,23,18,20.50
2018,08,06,23,19,20.40
2018,08,06,23,20,20.40
2018,08,06,23,21,20.40
2018,08,06,23,22,20.30
2018,08,06,23,23,20.30
2018,08,06,23,24,20.20
2018,08,06,23,25,20.10
2018,08,06,23,26,19.90
2018,08,06,23,27,19.80
2018,08,06,23,28,19.70
2018,08,06,23,29,19.60
2018,08,06,23,30,19.60
2018,08,06,23,31,19.50
2018,08,06,23,32,19.50
2018,08,06,23,33,19.40
2018,08,06,23,34,19.40
2018,08,06,23,35,19.30
2018,08,06,23,36,19.30
2018,08,06,23,37,19.30
2018,08,06,23,38,19.20
2018,08,06,23,39,19.20
2018,08,06,23,40,19.20
2018,08,06,23,41,19.20
2018,08,06,23,42,19.10
2018,08,06,23,43,19.10
2018,08,06,23,44,19.00
2018,08,06,23,45,19.00
2018,08,06,23,46,18.90
2018,08,06,23,47,18.90
2018,08,06,23,48,18.90
2018,08,06,23,49,18.90
2018,08,06,23,50,18.90
2018,08,06,23,51,18.80
2018,08,06,23,52,18.80
2018,08,06,23,53,18.80
2018,08,06,23,54,18.80
2018,08,06,23,55,18.70
2018,08,06,23,56,18.70
2018,08,06,23,57,18.70
2018,08,06,23,58,18.70
2018,08,06,23,59,18.70
